STARLINK-36577, 67583

Orbit data source: Space-Track

STARLINK-36577, 67583 is a payload satellite owned by SpaceX/Seattle (US) in SSO that was launched on Sun, 25 Jan 2026 UTC via an FALCON 9 launch vehicle from the Air Force Western Test Range (AFWTR). Payload-class satellites include a variety of spacecraft equipped with specific instruments for various scientific and technological missions. These include communications satellites like Starlink; space stations such as the ISS; scientific satellites like the Hubble; Earth observation satellites from companies like Planet Labs, Umbra, and HawkEye 360; GPS; miniature CubeSats for education and research; and military/defense satellites.

Loading next visibility...
Identifier
67583, 2026-016Y
Orbit
SSO
Country
Flag of USUS
Related business
Manufacturer
SpaceX/Seattle
Mission
Operational Commercial Communications
Bus & Motor
STARLINK V2MO, Unknown motor
Mass
575 kg wet, ~530 kg dry
Launch date (UTC)
2026-01-25 (5 months ago)
Launch vehicle
FALCON 9
Launch site
Air Force Western Test Range (AFWTR)
Object type
Payload
Rocket body
Debris
Shape & HBR
Box + 2 Pan, 17.7 m
Radar Cross Section
36.964 m², Large (>1 m²)

Expand to show TLE details & history
Last TLE update: 10 hours ago

TLE from 10 hours ago
0 STARLINK-36577
1 67583U 26016Y   26171.41701742  .00014442  00000-0  44864-3 0  9991
2 67583  97.2848 231.4709 0000469 107.0250 253.1044 15.33457379 22616
Epoch: 2026-06-20T10:00Z
TLE epoch observation values (Epoch: 2026-06-20T10:00:30.305Z)
Latitude
-0.00001°
Longitude
172.71269°
Altitude
468.712 km
Speed
7.632 km/s
True Right ascension
15h 25m 53s
True Declination
0° 00' 00"
Sunlit
Object was in full shadow at epoch
Visualization orbit readout
Latitude
Unknown
Longitude
Unknown
Altitude
Unknown
Speed
Unknown
Apparent Right ascension
Unknown
Apparent Declination
Unknown
Sunlit
N/A
Visualization observer readout
Local Sidereal Time
07:23:27
Azimuth
Unknown
Elevation
Unknown
Doppler factor
Unknown
Orbital elements
Apogee altitude
462.77 km
Perigee altitude
462.128 km
Semi-major axis
6,840.586 km
Eccentricity
0.00005
Inclination
97.2848°
RAAN
231.4709°
Arg. of periapsis
107.025°
True anomaly
253.09926°
Mean anomaly
253.1044°
Eccentric anomaly
253.10183°
Mean motion
3.83622 °/min
Orbital period
93.84 mins
BSTAR
0.00044864
Loading maneuver chart data...
Computing Atmospheric mass density...
Loading historical data...
Loading historical data...
Loading historical data...
Loading historical data...
Loading historical data...
Loading historical data...
Loading historical data...

Documentation

Showing up to 5 results
|